Overview Statistics Trail Chart Weather Telemetry Raw packets
 

This is the latest recevied weather packets stored in our database for station/object S56VIL-11. If no packets are shown the sender has not sent any weather packets the latest 10 day(s).

<< 14 15 16 17 18 19 20 >>
Time Temp. Humidity Pressure Rain* Wind** Luminosity Snow
1788274489 26.67° C 57% 1033 hPa - - - -
1788273589 26.11° C 58% 1033.1 hPa - - - -
1788272689 27.22° C 57% 1033.2 hPa - - - -
1788271789 31.11° C 56% 1033.1 hPa - - - -
1788270889 28.89° C 57% 1033.1 hPa - - - -
1788269989 25.56° C 57% 1033.3 hPa - - - -
1788269089 27.78° C 56% 1033.3 hPa - - - -
1788268189 27.78° C 56% 1033.4 hPa - - - -
1788267289 26.67° C 57% 1033.5 hPa - - - -
1788266389 25° C 58% 1033.7 hPa - - - -
1788265489 26.11° C 57% 1033.7 hPa - - - -
1788264589 26.67° C 57% 1033.8 hPa - - - -
1788263689 26.11° C 58% 1033.9 hPa - - - -
1788262789 26.11° C 58% 1034 hPa - - - -
1788261889 26.11° C 58% 1034 hPa - - - -
1788260989 26.67° C 58% 1034.1 hPa - - - -
1788260089 26.11° C 58% 1034.1 hPa - - - -
1788259189 25.56° C 59% 1034.2 hPa - - - -
1788258289 26.11° C 59% 1034.2 hPa - - - -
1788257389 26.67° C 59% 1034.4 hPa - - - -
1788256489 23.33° C 60% 1034.4 hPa - - - -
1788255589 22.78° C 61% 1034.4 hPa - - - -
1788254688 22.22° C 61% 1034.4 hPa - - - -
1788253788 23.33° C 60% 1034.3 hPa - - - -
1788252938 22.78° C 61% 1034.2 hPa - - - -

* Rain since midnight (hover to see other rain measurements)
** Current wind speed in m/s (hover to see current wind gust speed)